Flag for Switzerland Weather past 2 weeks in Aarau, Aargau, Switzerland

Now
48 °F

Cool.


Feels Like: 43 °F
Forecast: 43 / 53 °F
Wind: 12 mph from Southwest

Location: Wynau

Current Time: Mar 30, 2015 at 5:00:22 AM

Latest Report: Mar 30, 2015 at 4:00 AM


Visibility: N/A

Pressure: 29.74 "Hg

Humidity: 94%

Dew point: 46 °F

Location of AarauLocation

Historic Weather in Aarau — Graph

°F

Aarau temperature yesterday

Maximum temperature yesterday: 52 °F (at 12:00 PM)
Minimum temperature yesterday: 45 °F (at 5:00 AM)
Average temperature yesterday: 48 °F

Past Weeks' High & Low Weather Summary

 TemperatureHumidityPressure
High64 °F (Mar 18, 4:00 PM)100% (Mar 24, 3:00 AM)30.34 "Hg (Mar 24, 3:00 AM)
Low29 °F (Mar 28, 7:00 AM)30% (Mar 24, 4:00 PM)29.61 "Hg (Mar 25, 1:00 PM)
Average44 °F78%30.05 "Hg
* Reported Mar 15 2:00 AM — Mar 30 3:00 AM, Aarau, Weather by CustomWeather, © 2015

Note: Actual official high and low records may vary slightly from our data, if they occured in-between our weather recording intervals... More about our weather records

Advertising

Aarau weather history for previous 24 hours

 ConditionsComfort  
Time TempWeatherWind HumidityBarometerVisibility
3:00 AM
Mon, Mar 30
48 °FCool.10 mph93%29.76 "HgN/A
2:00 AM48 °FCool.9 mph90%29.79 "HgN/A
1:00 AM48 °FCool.12 mph94%29.80 "HgN/A
12:00 AM48 °FCool.10 mph95%29.81 "HgN/A
10:00 PM
Sun, Mar 29
49 °FCool.14 mph93%29.84 "HgN/A
9:00 PM48 °FCool.10 mph95%29.85 "HgN/A
8:00 PM48 °FCool.8 mph92%29.85 "HgN/A
7:00 PM48 °FCool.15 mph89%29.88 "HgN/A
6:00 PM49 °FCool.10 mph86%29.89 "HgN/A
5:00 PM48 °FCool.13 mph91%29.93 "HgN/A
4:00 PM49 °FCool.16 mph78%29.94 "HgN/A
3:00 PM49 °FCool.17 mph80%29.93 "HgN/A
2:00 PM49 °FCool.15 mph82%29.95 "HgN/A
1:00 PM52 °FCool.23 mph66%29.93 "HgN/A
12:00 PM52 °FCool.20 mph68%29.95 "HgN/A
11:00 AM52 °FCool.8 mph70%29.98 "HgN/A
10:00 AM50 °FCool.12 mph73%30.01 "HgN/A
9:00 AM49 °FCool.10 mph78%30.02 "HgN/A
8:00 AM48 °FCool.9 mph80%30.03 "HgN/A
7:00 AM47 °FCool.5 mph85%30.04 "HgN/A
6:00 AM46 °FCool.6 mph87%30.07 "HgN/A
5:00 AM45 °FQuite cool.6 mph91%30.08 "HgN/A
Weather by CustomWeather, © 2015

See weather overviewHow to use our weather pages